Home > Weather > Lancaster > Past weeks

Flag for USA Past Weather in Lancaster, California, USA — Yesterday and Last 2 Weeks

Now
95 °F

Sunny.


Feels Like: 91 °F
Forecast: 66 / 91 °F
Wind: 18 mph from Southwest

Location: Lancaster / Fox Field

Current Time: Aug 25, 2016 at 5:00:05 PM

Latest Report: Aug 25, 2016 at 3:56 PM


Visibility: 10 mi

Pressure: 29.81 "Hg (27.53 "Hg at 718m altitude)

Humidity: 14%

Dew Point: 39 °F

Location of LancasterLocation

Past Weather in Lancaster — Graph

°F

Lancaster Temperature Yesterday

Maximum temperature yesterday: 99 °F (at 1:56 PM)
Minimum temperature yesterday: 75 °F (at 5:56 AM)
Average temperature yesterday: 85 °F

High & Low Weather Summary for the Past Weeks

 TemperatureHumidityPressure
High105 °F (Aug 13, 2:56 PM)47% (Aug 11, 6:56 AM)30.02 "Hg (Aug 11, 6:56 AM)
Low55 °F (Aug 11, 5:56 AM)2% (Aug 15, 2:56 PM)29.80 "Hg (Aug 16, 4:56 PM)
Average84 °F19%29.89 "Hg
* Reported Aug 10 3:56 PM — Aug 25 3:56 PM, Lancaster, Weather by CustomWeather, © 2016

Note: Actual official high and low records may vary slightly from our data, if they occured in-between our weather recording intervals... More about our weather records

Advertising

Lancaster Weather History for the Previous 24 Hours

Scroll right to see more
 ConditionsComfort  
Time TempWeatherWind HumidityBarometerVisibility
3:56 PM
Thu, Aug 25
95 °FSunny.18 mph14%29.81 "Hg10 mi
2:56 PM96 °FSunny.17 mph12%29.81 "Hg10 mi
1:56 PM96 °FSunny.18 mph13%29.83 "Hg10 mi
12:56 PM96 °FSunny.17 mph13%29.85 "Hg10 mi
11:56 AM94 °FSunny.17 mph15%29.87 "Hg10 mi
10:56 AM92 °FSunny.16 mph16%29.89 "Hg10 mi
9:56 AM88 °FSunny.16 mph18%29.90 "Hg10 mi
8:56 AM84 °FSunny.15 mph22%29.90 "Hg10 mi
7:56 AM79 °FSunny.8 mph27%29.90 "Hg10 mi
6:56 AM66 °FClear.No wind40%29.92 "Hg10 mi
5:56 AM70 °FClear.6 mph38%29.89 "Hg10 mi
4:56 AM72 °FClear.7 mph34%29.88 "Hg10 mi
3:56 AM74 °FClear.10 mph33%29.87 "Hg10 mi
2:56 AM75 °FClear.14 mph30%29.87 "Hg10 mi
1:56 AM76 °FClear.12 mph25%29.88 "Hg10 mi
12:56 AM78 °FClear.13 mph22%29.89 "Hg10 mi
11:56 PM
Wed, Aug 24
79 °FClear.15 mph23%29.90 "Hg10 mi
10:56 PM80 °FClear.13 mph23%29.91 "Hg10 mi
9:56 PM80 °FClear.14 mph24%29.91 "Hg10 mi
8:56 PM82 °FClear.15 mph22%29.91 "Hg10 mi
7:56 PM84 °FSunny.18 mph20%29.90 "Hg10 mi
6:56 PM88 °FPassing clouds.23 mph17%29.89 "Hg10 mi
5:56 PM92 °FPassing clouds.28 mph14%29.88 "Hg10 mi
Weather by CustomWeather, © 2016

See weather overviewHow to use our weather pages